Location: Dilsberg
(49.3983°N, 8.8354°E)
Time: 09:53:54
(UTC+00:00)

Cosmos 1633 Rocket - Pass Details

Date: 19 May 2025
Orbit: 600 x 618 km, 82.5° (Epoch: 23 June)

Event Time Altitude Azimuth Distance (km) Brightness Sun altitude
Rises 22:53:06 0° 358° (N) 2,885 8.1 -20.3°
Reaches altitude 10° 22:55:34 10° 9° (N) 1,972 6.7 -20.4°
Maximum altitude 22:59:25 30° 71° (ENE) 1,102 4.4 -20.5°
Enters shadow 23:00:56 24° 107° (ESE) 1,274 4.4 -20.5°
